Year,Month,Day,Hour,Minute,Value (Times are PST for windspeed in km/hr)
2010,04,03,00,00,7.70
2010,04,03,00,01,6.30
2010,04,03,00,02,11.70
2010,04,03,00,03,8.20
2010,04,03,00,04,8.10
2010,04,03,00,05,15.50
2010,04,03,00,06,15.10
2010,04,03,00,07,18.40
2010,04,03,00,08,11.10
2010,04,03,00,09,7.40
2010,04,03,00,10,14.70
2010,04,03,00,11,16.20
2010,04,03,00,12,11.40
2010,04,03,00,13,10.40
2010,04,03,00,14,7.60
2010,04,03,00,15,7.20
2010,04,03,00,16,5.70
2010,04,03,00,17,5.90
2010,04,03,00,18,10.30
2010,04,03,00,19,8.00
2010,04,03,00,20,3.60
2010,04,03,00,21,9.50
2010,04,03,00,22,5.90
2010,04,03,00,23,8.60
2010,04,03,00,24,5.70
2010,04,03,00,25,9.80
2010,04,03,00,26,8.40
2010,04,03,00,27,15.30
2010,04,03,00,28,11.60
2010,04,03,00,29,8.00
2010,04,03,00,30,14.60
2010,04,03,00,31,8.70
2010,04,03,00,32,12.30
2010,04,03,00,33,10.90
2010,04,03,00,34,12.20
2010,04,03,00,35,15.90
2010,04,03,00,36,14.00
2010,04,03,00,37,9.80
2010,04,03,00,38,13.40
2010,04,03,00,39,13.70
2010,04,03,00,40,14.20
2010,04,03,00,41,9.80
2010,04,03,00,42,13.70
2010,04,03,00,43,13.20
2010,04,03,00,44,14.70
2010,04,03,00,45,14.40
2010,04,03,00,46,9.10
2010,04,03,00,47,7.50
2010,04,03,00,48,15.80
2010,04,03,00,49,13.60
2010,04,03,00,50,15.40
2010,04,03,00,51,11.30
2010,04,03,00,52,9.80
2010,04,03,00,53,10.80
2010,04,03,00,54,15.00
2010,04,03,00,55,9.30
2010,04,03,00,56,9.20
2010,04,03,00,57,3.40
2010,04,03,00,58,6.20
2010,04,03,00,59,8.80
2010,04,03,01,00,9.50
2010,04,03,01,01,10.00
2010,04,03,01,02,8.00
2010,04,03,01,03,9.80
2010,04,03,01,04,8.80
2010,04,03,01,05,5.50
2010,04,03,01,06,3.70
2010,04,03,01,07,7.10
2010,04,03,01,08,6.90
2010,04,03,01,09,5.00
2010,04,03,01,10,9.70
2010,04,03,01,11,6.70
2010,04,03,01,12,5.20
2010,04,03,01,13,6.30
2010,04,03,01,14,4.20
2010,04,03,01,15,8.70
2010,04,03,01,16,3.80
2010,04,03,01,17,3.60
2010,04,03,01,18,10.30
2010,04,03,01,19,6.50
2010,04,03,01,20,3.10
2010,04,03,01,21,6.30
2010,04,03,01,22,6.50
2010,04,03,01,23,4.80
2010,04,03,01,24,9.40
2010,04,03,01,25,8.30
2010,04,03,01,26,12.40
2010,04,03,01,27,6.00
2010,04,03,01,28,2.60
2010,04,03,01,29,8.00
2010,04,03,01,30,7.80
2010,04,03,01,31,5.40
2010,04,03,01,32,6.40
2010,04,03,01,33,7.20
2010,04,03,01,34,5.50
2010,04,03,01,35,6.80
2010,04,03,01,36,5.90
2010,04,03,01,37,2.00
2010,04,03,01,38,4.80
2010,04,03,01,39,6.90
2010,04,03,01,40,0.20
2010,04,03,01,41,6.10
2010,04,03,01,42,10.30
2010,04,03,01,43,4.10
2010,04,03,01,44,4.50
2010,04,03,01,45,1.40
2010,04,03,01,46,5.20
2010,04,03,01,47,8.20
2010,04,03,01,48,5.20
2010,04,03,01,49,9.20
2010,04,03,01,50,6.30
2010,04,03,01,51,3.30
2010,04,03,01,52,4.20
2010,04,03,01,53,2.70
2010,04,03,01,54,6.20
2010,04,03,01,55,3.70
2010,04,03,01,56,6.90
2010,04,03,01,57,8.10
2010,04,03,01,58,5.80
2010,04,03,01,59,6.80
2010,04,03,02,00,5.40
2010,04,03,02,01,5.10
2010,04,03,02,02,5.80
2010,04,03,02,03,8.50
2010,04,03,02,04,7.80
2010,04,03,02,05,2.80
2010,04,03,02,06,6.50
2010,04,03,02,07,5.80
2010,04,03,02,08,1.90
2010,04,03,02,09,6.50
2010,04,03,02,10,4.30
2010,04,03,02,11,6.00
2010,04,03,02,12,6.80
2010,04,03,02,13,6.70
2010,04,03,02,14,11.00
2010,04,03,02,15,11.40
2010,04,03,02,16,10.50
2010,04,03,02,17,4.40
2010,04,03,02,18,8.80
2010,04,03,02,19,6.40
2010,04,03,02,20,6.00
2010,04,03,02,21,10.10
2010,04,03,02,22,4.90
2010,04,03,02,23,7.00
2010,04,03,02,24,0.80
2010,04,03,02,25,10.60
2010,04,03,02,26,6.80
2010,04,03,02,27,9.80
2010,04,03,02,28,3.00
2010,04,03,02,29,3.80
2010,04,03,02,30,10.00
2010,04,03,02,31,9.50
2010,04,03,02,32,9.60
2010,04,03,02,33,6.80
2010,04,03,02,34,7.00
2010,04,03,02,35,10.60
2010,04,03,02,36,8.00
2010,04,03,02,37,3.80
2010,04,03,02,38,4.90
2010,04,03,02,39,7.00
2010,04,03,02,40,6.00
2010,04,03,02,41,3.80
2010,04,03,02,42,4.60
2010,04,03,02,43,5.00
2010,04,03,02,44,5.90
2010,04,03,02,45,1.60
2010,04,03,02,46,2.40
2010,04,03,02,47,3.70
2010,04,03,02,48,5.10
2010,04,03,02,49,3.00
2010,04,03,02,50,2.80
2010,04,03,02,51,12.20
2010,04,03,02,52,8.80
2010,04,03,02,53,10.00
2010,04,03,02,54,4.60
2010,04,03,02,55,6.20
2010,04,03,02,56,4.90
2010,04,03,02,57,4.00
2010,04,03,02,58,2.70
2010,04,03,02,59,6.50
2010,04,03,03,00,3.60
2010,04,03,03,01,3.10
2010,04,03,03,02,9.70
2010,04,03,03,03,13.80
2010,04,03,03,04,13.60
2010,04,03,03,05,6.70
2010,04,03,03,06,2.20
2010,04,03,03,07,4.60
2010,04,03,03,08,6.40
2010,04,03,03,09,5.00
2010,04,03,03,10,8.60
2010,04,03,03,11,5.50
2010,04,03,03,12,2.50
2010,04,03,03,13,11.60
2010,04,03,03,14,6.20
2010,04,03,03,15,7.60
2010,04,03,03,16,10.90
2010,04,03,03,17,5.00
2010,04,03,03,18,8.90
2010,04,03,03,19,11.00
2010,04,03,03,20,6.40
2010,04,03,03,21,3.20
2010,04,03,03,22,6.40
2010,04,03,03,23,5.00
2010,04,03,03,24,10.10
2010,04,03,03,25,4.60
2010,04,03,03,26,6.50
2010,04,03,03,27,5.80
2010,04,03,03,28,1.50
2010,04,03,03,29,7.70
2010,04,03,03,30,5.60
2010,04,03,03,31,5.20
2010,04,03,03,32,6.10
2010,04,03,03,33,5.90
2010,04,03,03,34,2.40
2010,04,03,03,35,4.40
2010,04,03,03,36,4.90
2010,04,03,03,37,4.50
2010,04,03,03,38,5.40
2010,04,03,03,39,2.70
2010,04,03,03,40,4.50
2010,04,03,03,41,3.20
2010,04,03,03,42,4.20
2010,04,03,03,43,4.30
2010,04,03,03,44,2.90
2010,04,03,03,45,2.70
2010,04,03,03,46,9.30
2010,04,03,03,47,2.80
2010,04,03,03,48,3.10
2010,04,03,03,49,12.80
2010,04,03,03,50,3.20
2010,04,03,03,51,2.40
2010,04,03,03,52,8.20
2010,04,03,03,53,5.50
2010,04,03,03,54,6.80
2010,04,03,03,55,6.90
2010,04,03,03,56,1.90
2010,04,03,03,57,2.70
2010,04,03,03,58,4.80
2010,04,03,03,59,0.90
2010,04,03,04,00,5.90
2010,04,03,04,01,7.80
2010,04,03,04,02,5.30
2010,04,03,04,03,2.20
2010,04,03,04,04,2.60
2010,04,03,04,05,5.00
2010,04,03,04,06,5.10
2010,04,03,04,07,4.10
2010,04,03,04,08,6.50
2010,04,03,04,09,2.50
2010,04,03,04,10,1.50
2010,04,03,04,11,7.40
2010,04,03,04,12,4.30
2010,04,03,04,13,7.10
2010,04,03,04,14,4.80
2010,04,03,04,15,5.50
2010,04,03,04,16,7.10
2010,04,03,04,17,3.60
2010,04,03,04,18,3.50
2010,04,03,04,19,1.60
2010,04,03,04,20,5.90
2010,04,03,04,21,2.80
2010,04,03,04,22,2.70
2010,04,03,04,23,4.70
2010,04,03,04,24,3.20
2010,04,03,04,25,5.80
2010,04,03,04,26,3.30
2010,04,03,04,27,4.10
2010,04,03,04,28,10.90
2010,04,03,04,29,2.90
2010,04,03,04,30,3.60
2010,04,03,04,31,3.00
2010,04,03,04,32,7.60
2010,04,03,04,33,12.60
2010,04,03,04,34,14.20
2010,04,03,04,35,5.40
2010,04,03,04,36,4.20
2010,04,03,04,37,8.60
2010,04,03,04,38,10.50
2010,04,03,04,39,9.90
2010,04,03,04,40,7.30
2010,04,03,04,41,10.00
2010,04,03,04,42,7.90
2010,04,03,04,43,4.20
2010,04,03,04,44,6.00
2010,04,03,04,45,6.90
2010,04,03,04,46,7.50
2010,04,03,04,47,7.80
2010,04,03,04,48,8.00
2010,04,03,04,49,6.10
2010,04,03,04,50,4.20
2010,04,03,04,51,5.80
2010,04,03,04,52,4.80
2010,04,03,04,53,5.40
2010,04,03,04,54,5.10
2010,04,03,04,55,9.70
2010,04,03,04,56,7.00
2010,04,03,04,57,9.70
2010,04,03,04,58,7.10
2010,04,03,04,59,4.00
2010,04,03,05,00,6.40
2010,04,03,05,01,5.10
2010,04,03,05,02,13.80
2010,04,03,05,03,5.50
2010,04,03,05,04,6.90
2010,04,03,05,05,3.80
2010,04,03,05,06,8.70
2010,04,03,05,07,1.90
2010,04,03,05,08,3.90
2010,04,03,05,09,3.80
2010,04,03,05,10,6.10
2010,04,03,05,11,6.70
2010,04,03,05,12,2.60
2010,04,03,05,13,6.30
2010,04,03,05,14,6.30
2010,04,03,05,15,10.30
2010,04,03,05,16,4.60
2010,04,03,05,17,8.20
2010,04,03,05,18,5.60
2010,04,03,05,19,4.70
2010,04,03,05,20,6.50
2010,04,03,05,21,12.60
2010,04,03,05,22,3.20
2010,04,03,05,23,8.70
2010,04,03,05,24,5.30
2010,04,03,05,25,0.70
2010,04,03,05,26,8.00
2010,04,03,05,27,5.40
2010,04,03,05,28,7.20
2010,04,03,05,29,1.90
2010,04,03,05,30,10.00
2010,04,03,05,31,4.40
2010,04,03,05,32,3.80
2010,04,03,05,33,5.50
2010,04,03,05,34,5.10
2010,04,03,05,35,5.90
2010,04,03,05,36,4.10
2010,04,03,05,37,3.60
2010,04,03,05,38,5.50
2010,04,03,05,39,7.00
2010,04,03,05,40,7.50
2010,04,03,05,41,3.50
2010,04,03,05,42,6.30
2010,04,03,05,43,1.50
2010,04,03,05,44,4.20
2010,04,03,05,45,2.40
2010,04,03,05,46,3.00
2010,04,03,05,47,1.60
2010,04,03,05,48,1.40
2010,04,03,05,49,5.60
2010,04,03,05,50,4.60
2010,04,03,05,51,5.00
2010,04,03,05,52,0.10
2010,04,03,05,53,2.10
2010,04,03,05,54,1.90
2010,04,03,05,55,1.80
2010,04,03,05,56,0.80
2010,04,03,05,57,5.30
2010,04,03,05,58,8.20
2010,04,03,05,59,0.50
2010,04,03,06,00,6.30
2010,04,03,06,01,4.00
2010,04,03,06,02,3.20
2010,04,03,06,03,2.10
2010,04,03,06,04,3.30
2010,04,03,06,05,5.40
2010,04,03,06,06,3.20
2010,04,03,06,07,2.90
2010,04,03,06,08,0.50
2010,04,03,06,09,0.40
2010,04,03,06,10,0.20
2010,04,03,06,11,0.60
2010,04,03,06,12,1.10
2010,04,03,06,13,1.80
2010,04,03,06,14,5.20
2010,04,03,06,15,5.80
2010,04,03,06,16,3.30
2010,04,03,06,17,0.90
2010,04,03,06,18,2.00
2010,04,03,06,19,1.60
2010,04,03,06,20,4.10
2010,04,03,06,21,4.30
2010,04,03,06,22,5.80
2010,04,03,06,23,4.10
2010,04,03,06,24,4.90
2010,04,03,06,25,4.40
2010,04,03,06,26,2.50
2010,04,03,06,27,6.20
2010,04,03,06,28,4.30
2010,04,03,06,29,4.20
2010,04,03,06,30,7.70
2010,04,03,06,31,2.30
2010,04,03,06,32,0.30
2010,04,03,06,33,3.70
2010,04,03,06,34,2.00
2010,04,03,06,35,1.60
2010,04,03,06,36,2.90
2010,04,03,06,37,7.50
2010,04,03,06,38,1.50
2010,04,03,06,39,2.60
2010,04,03,06,40,5.00
2010,04,03,06,41,3.40
2010,04,03,06,42,9.70
2010,04,03,06,43,3.90
2010,04,03,06,44,7.00
2010,04,03,06,45,2.60
2010,04,03,06,46,2.90
2010,04,03,06,47,3.20
2010,04,03,06,48,1.40
2010,04,03,06,49,6.40
2010,04,03,06,50,7.90
2010,04,03,06,51,1.20
2010,04,03,06,52,0.60
2010,04,03,06,53,4.30
2010,04,03,06,54,1.50
2010,04,03,06,55,0.80
2010,04,03,06,56,2.40
2010,04,03,06,57,0.30
2010,04,03,06,58,2.00
2010,04,03,06,59,6.40
2010,04,03,07,00,0.70
2010,04,03,07,01,1.30
2010,04,03,07,02,1.80
2010,04,03,07,03,1.00
2010,04,03,07,04,0.30
2010,04,03,07,05,0.70
2010,04,03,07,06,1.00
2010,04,03,07,07,2.60
2010,04,03,07,08,2.90
2010,04,03,07,09,1.00
2010,04,03,07,10,0.80
2010,04,03,07,11,1.20
2010,04,03,07,12,0.60
2010,04,03,07,13,0.60
2010,04,03,07,14,0.50
2010,04,03,07,15,0.10
2010,04,03,07,16,0.00
2010,04,03,07,17,0.10
2010,04,03,07,18,0.10
2010,04,03,07,19,0.00
2010,04,03,07,20,0.00
2010,04,03,07,21,0.30
2010,04,03,07,22,1.80
2010,04,03,07,23,0.70
2010,04,03,07,24,0.00
2010,04,03,07,25,0.00
2010,04,03,07,26,0.00
2010,04,03,07,27,0.20
2010,04,03,07,28,1.50
2010,04,03,07,29,3.00
2010,04,03,07,30,1.70
2010,04,03,07,31,4.20
2010,04,03,07,32,2.10
2010,04,03,07,33,3.40
2010,04,03,07,34,2.80
2010,04,03,07,35,0.80
2010,04,03,07,36,0.70
2010,04,03,07,37,0.40
2010,04,03,07,38,2.20
2010,04,03,07,39,6.40
2010,04,03,07,40,3.50
2010,04,03,07,41,3.10
2010,04,03,07,42,5.60
2010,04,03,07,43,2.20
2010,04,03,07,44,1.20
2010,04,03,07,45,1.30
2010,04,03,07,46,1.60
2010,04,03,07,47,10.60
2010,04,03,07,48,7.50
2010,04,03,07,49,6.70
2010,04,03,07,50,7.50
2010,04,03,07,51,13.70
2010,04,03,07,52,5.80
2010,04,03,07,53,3.20
2010,04,03,07,54,5.90
2010,04,03,07,55,0.90
2010,04,03,07,56,5.70
2010,04,03,07,57,2.40
2010,04,03,07,58,3.80
2010,04,03,07,59,4.40
2010,04,03,08,00,1.50
2010,04,03,08,01,0.50
2010,04,03,08,02,2.50
2010,04,03,08,03,0.50
2010,04,03,08,04,0.30
2010,04,03,08,05,0.20
2010,04,03,08,06,6.70
2010,04,03,08,07,1.20
2010,04,03,08,08,2.30
2010,04,03,08,09,6.10
2010,04,03,08,10,12.70
2010,04,03,08,11,15.90
2010,04,03,08,12,7.00
2010,04,03,08,13,7.80
2010,04,03,08,14,3.00
2010,04,03,08,15,5.00
2010,04,03,08,16,5.70
2010,04,03,08,17,5.60
2010,04,03,08,18,6.30
2010,04,03,08,19,4.10
2010,04,03,08,20,3.20
2010,04,03,08,21,8.00
2010,04,03,08,22,2.40
2010,04,03,08,23,3.40
2010,04,03,08,24,6.50
2010,04,03,08,25,1.60
2010,04,03,08,26,3.30
2010,04,03,08,27,1.30
2010,04,03,08,28,3.30
2010,04,03,08,29,2.90
2010,04,03,08,30,0.30
2010,04,03,08,31,1.10
2010,04,03,08,32,0.20
2010,04,03,08,33,0.70
2010,04,03,08,34,2.50
2010,04,03,08,35,3.10
2010,04,03,08,36,4.00
2010,04,03,08,37,0.90
2010,04,03,08,38,2.60
2010,04,03,08,39,1.30
2010,04,03,08,40,0.70
2010,04,03,08,41,1.80
2010,04,03,08,42,0.50
2010,04,03,08,43,1.50
2010,04,03,08,44,6.00
2010,04,03,08,45,5.10
2010,04,03,08,46,5.20
2010,04,03,08,47,3.20
2010,04,03,08,48,3.60
2010,04,03,08,49,7.60
2010,04,03,08,50,4.60
2010,04,03,08,51,0.90
2010,04,03,08,52,1.30
2010,04,03,08,53,7.80
2010,04,03,08,54,3.80
2010,04,03,08,55,3.80
2010,04,03,08,56,2.50
2010,04,03,08,57,4.70
2010,04,03,08,58,4.70
2010,04,03,08,59,1.50
2010,04,03,09,00,2.30
2010,04,03,09,01,4.20
2010,04,03,09,02,0.80
2010,04,03,09,03,0.40
2010,04,03,09,04,3.10
2010,04,03,09,05,4.90
2010,04,03,09,06,2.90
2010,04,03,09,07,0.30
2010,04,03,09,08,3.10
2010,04,03,09,09,1.30
2010,04,03,09,10,3.80
2010,04,03,09,11,2.80
2010,04,03,09,12,5.50
2010,04,03,09,13,4.90
2010,04,03,09,14,4.10
2010,04,03,09,15,3.30
2010,04,03,09,16,4.10
2010,04,03,09,17,1.10
2010,04,03,09,18,2.10
2010,04,03,09,19,6.30
2010,04,03,09,20,4.20
2010,04,03,09,21,0.00
2010,04,03,09,22,1.70
2010,04,03,09,23,0.60
2010,04,03,09,24,2.50
2010,04,03,09,25,4.20
2010,04,03,09,26,3.60
2010,04,03,09,27,6.30
2010,04,03,09,28,4.30
2010,04,03,09,29,0.10
2010,04,03,09,30,1.50
2010,04,03,09,31,2.00
2010,04,03,09,32,3.80
2010,04,03,09,33,0.50
2010,04,03,09,34,0.40
2010,04,03,09,35,3.00
2010,04,03,09,36,3.90
2010,04,03,09,37,1.80
2010,04,03,09,38,2.10
2010,04,03,09,39,1.60
2010,04,03,09,40,0.80
2010,04,03,09,41,10.80
2010,04,03,09,42,4.70
2010,04,03,09,43,7.30
2010,04,03,09,44,3.80
2010,04,03,09,45,9.70
2010,04,03,09,46,1.60
2010,04,03,09,47,0.40
2010,04,03,09,48,7.60
2010,04,03,09,49,2.90
2010,04,03,09,50,8.30
2010,04,03,09,51,12.30
2010,04,03,09,52,9.00
2010,04,03,09,53,4.60
2010,04,03,09,54,4.50
2010,04,03,09,55,4.40
2010,04,03,09,56,8.70
2010,04,03,09,57,1.50
2010,04,03,09,58,2.90
2010,04,03,09,59,6.30
2010,04,03,10,00,2.20
2010,04,03,10,01,5.50
2010,04,03,10,02,5.20
2010,04,03,10,03,4.10
2010,04,03,10,04,4.40
2010,04,03,10,05,12.50
2010,04,03,10,06,3.80
2010,04,03,10,07,4.70
2010,04,03,10,08,9.20
2010,04,03,10,09,6.60
2010,04,03,10,10,3.80
2010,04,03,10,11,6.40
2010,04,03,10,12,4.90
2010,04,03,10,13,9.00
2010,04,03,10,14,4.70
2010,04,03,10,15,2.80
2010,04,03,10,16,7.00
2010,04,03,10,17,2.10
2010,04,03,10,18,7.50
2010,04,03,10,19,6.40
2010,04,03,10,20,4.70
2010,04,03,10,21,7.90
2010,04,03,10,22,12.70
2010,04,03,10,23,17.10
2010,04,03,10,24,6.00
2010,04,03,10,25,11.60
2010,04,03,10,26,4.10
2010,04,03,10,27,5.30
2010,04,03,10,28,2.40
2010,04,03,10,29,16.10
2010,04,03,10,30,10.60
2010,04,03,10,31,5.70
2010,04,03,10,32,9.70
2010,04,03,10,33,4.00
2010,04,03,10,34,4.60
2010,04,03,10,35,2.90
2010,04,03,10,36,5.70
2010,04,03,10,37,4.50
2010,04,03,10,38,6.70
2010,04,03,10,39,13.20
2010,04,03,10,40,10.60
2010,04,03,10,41,3.10
2010,04,03,10,42,2.70
2010,04,03,10,43,3.00
2010,04,03,10,44,2.80
2010,04,03,10,45,6.40
2010,04,03,10,46,4.80
2010,04,03,10,47,0.20
2010,04,03,10,48,0.40
2010,04,03,10,49,2.60
2010,04,03,10,50,0.80
2010,04,03,10,51,4.70
2010,04,03,10,52,3.10
2010,04,03,10,53,0.60
2010,04,03,10,54,0.20
2010,04,03,10,55,4.60
2010,04,03,10,56,1.80
2010,04,03,10,57,0.50
2010,04,03,10,58,4.30
2010,04,03,10,59,3.90
2010,04,03,11,00,5.00
2010,04,03,11,01,2.30
2010,04,03,11,02,0.60
2010,04,03,11,03,0.00
2010,04,03,11,04,1.30
2010,04,03,11,05,0.20
2010,04,03,11,06,2.70
2010,04,03,11,07,4.60
2010,04,03,11,08,2.10
2010,04,03,11,09,0.90
2010,04,03,11,10,1.00
2010,04,03,11,11,7.50
2010,04,03,11,12,5.40
2010,04,03,11,13,2.60
2010,04,03,11,14,0.70
2010,04,03,11,15,0.40
2010,04,03,11,16,1.90
2010,04,03,11,17,3.00
2010,04,03,11,18,3.30
2010,04,03,11,19,0.80
2010,04,03,11,20,2.60
2010,04,03,11,21,4.60
2010,04,03,11,22,1.90
2010,04,03,11,23,0.90
2010,04,03,11,24,0.50
2010,04,03,11,25,4.10
2010,04,03,11,26,0.80
2010,04,03,11,27,2.70
2010,04,03,11,28,0.20
2010,04,03,11,29,0.60
2010,04,03,11,30,2.60
2010,04,03,11,31,2.40
2010,04,03,11,32,2.10
2010,04,03,11,33,1.50
2010,04,03,11,34,3.30
2010,04,03,11,35,0.80
2010,04,03,11,36,1.40
2010,04,03,11,37,2.00
2010,04,03,11,38,0.80
2010,04,03,11,39,4.70
2010,04,03,11,40,4.80
2010,04,03,11,41,3.40
2010,04,03,11,42,5.60
2010,04,03,11,43,5.50
2010,04,03,11,44,2.50
2010,04,03,11,45,2.80
2010,04,03,11,46,3.60
2010,04,03,11,47,0.30
2010,04,03,11,48,0.40
2010,04,03,11,49,4.00
2010,04,03,11,50,0.60
2010,04,03,11,51,2.70
2010,04,03,11,52,2.90
2010,04,03,11,53,2.50
2010,04,03,11,54,0.30
2010,04,03,11,55,1.60
2010,04,03,11,56,3.10
2010,04,03,11,57,0.90
2010,04,03,11,58,0.30
2010,04,03,11,59,2.70
2010,04,03,12,00,1.20
2010,04,03,12,01,0.00
2010,04,03,12,02,0.10
2010,04,03,12,03,0.40
2010,04,03,12,04,0.30
2010,04,03,12,05,0.40
2010,04,03,12,06,0.50
2010,04,03,12,07,0.70
2010,04,03,12,08,0.10
2010,04,03,12,09,0.20
2010,04,03,12,10,0.00
2010,04,03,12,11,0.30
2010,04,03,12,12,0.00
2010,04,03,12,13,0.10
2010,04,03,12,14,0.70
2010,04,03,12,15,0.00
2010,04,03,12,16,0.00
2010,04,03,12,17,0.00
2010,04,03,12,18,0.90
2010,04,03,12,19,3.60
2010,04,03,12,20,0.00
2010,04,03,12,21,0.00
2010,04,03,12,22,1.20
2010,04,03,12,23,0.20
2010,04,03,12,24,1.20
2010,04,03,12,25,1.80
2010,04,03,12,26,1.60
2010,04,03,12,27,0.90
2010,04,03,12,28,1.30
2010,04,03,12,29,1.80
2010,04,03,12,30,0.20
2010,04,03,12,31,3.80
2010,04,03,12,32,2.00
2010,04,03,12,33,4.80
2010,04,03,12,34,4.20
2010,04,03,12,35,1.40
2010,04,03,12,36,0.70
2010,04,03,12,37,1.60
2010,04,03,12,38,4.30
2010,04,03,12,39,4.60
2010,04,03,12,40,2.70
2010,04,03,12,41,2.40
2010,04,03,12,42,3.50
2010,04,03,12,43,0.90
2010,04,03,12,44,0.30
2010,04,03,12,45,0.60
2010,04,03,12,46,0.00
2010,04,03,12,47,0.20
2010,04,03,12,48,0.10
2010,04,03,12,49,0.30
2010,04,03,12,50,0.20
2010,04,03,12,51,0.00
2010,04,03,12,52,0.40
2010,04,03,12,53,1.20
2010,04,03,12,54,0.60
2010,04,03,12,55,0.50
2010,04,03,12,56,0.60
2010,04,03,12,57,0.50
2010,04,03,12,58,0.00
2010,04,03,12,59,0.00
2010,04,03,13,00,0.00
2010,04,03,13,01,0.00
2010,04,03,13,02,0.10
2010,04,03,13,03,0.00
2010,04,03,13,04,0.00
2010,04,03,13,05,0.50
2010,04,03,13,06,0.40
2010,04,03,13,07,1.30
2010,04,03,13,08,2.60
2010,04,03,13,09,1.20
2010,04,03,13,10,2.60
2010,04,03,13,11,2.60
2010,04,03,13,12,4.20
2010,04,03,13,13,3.40
2010,04,03,13,14,1.50
2010,04,03,13,15,0.60
2010,04,03,13,16,1.10
2010,04,03,13,17,0.40
2010,04,03,13,18,2.00
2010,04,03,13,19,1.40
2010,04,03,13,20,2.60
2010,04,03,13,21,2.50
2010,04,03,13,22,1.20
2010,04,03,13,23,0.80
2010,04,03,13,24,0.60
2010,04,03,13,25,3.60
2010,04,03,13,26,1.70
2010,04,03,13,27,0.40
2010,04,03,13,28,0.50
2010,04,03,13,29,0.60
2010,04,03,13,30,3.10
2010,04,03,13,31,0.00
2010,04,03,13,32,0.20
2010,04,03,13,33,1.00
2010,04,03,13,34,1.30
2010,04,03,13,35,1.60
2010,04,03,13,36,2.00
2010,04,03,13,37,0.80
2010,04,03,13,38,0.80
2010,04,03,13,39,2.40
2010,04,03,13,40,5.30
2010,04,03,13,41,5.90
2010,04,03,13,42,7.30
2010,04,03,13,43,2.80
2010,04,03,13,44,5.10
2010,04,03,13,45,5.30
2010,04,03,13,46,2.00
2010,04,03,13,47,4.20
2010,04,03,13,48,6.40
2010,04,03,13,49,4.70
2010,04,03,13,50,3.00
2010,04,03,13,51,1.80
2010,04,03,13,52,2.80
2010,04,03,13,53,4.50
2010,04,03,13,54,1.00
2010,04,03,13,55,1.80
2010,04,03,13,56,2.20
2010,04,03,13,57,2.10
2010,04,03,13,58,2.80
2010,04,03,13,59,3.20
2010,04,03,14,00,2.70
2010,04,03,14,01,4.10
2010,04,03,14,02,3.40
2010,04,03,14,03,3.60
2010,04,03,14,04,5.60
2010,04,03,14,05,3.10
2010,04,03,14,06,1.90
2010,04,03,14,07,3.40
2010,04,03,14,08,1.30
2010,04,03,14,09,1.00
2010,04,03,14,10,3.40
2010,04,03,14,11,1.80
2010,04,03,14,12,3.20
2010,04,03,14,13,6.70
2010,04,03,14,14,3.70
2010,04,03,14,15,3.80
2010,04,03,14,16,6.40
2010,04,03,14,17,4.60
2010,04,03,14,18,1.80
2010,04,03,14,19,6.20
2010,04,03,14,20,5.90
2010,04,03,14,21,3.80
2010,04,03,14,22,0.90
2010,04,03,14,23,1.20
2010,04,03,14,24,3.90
2010,04,03,14,25,5.90
2010,04,03,14,26,2.50
2010,04,03,14,27,4.40
2010,04,03,14,28,1.90
2010,04,03,14,29,6.40
2010,04,03,14,30,6.80
2010,04,03,14,31,2.00
2010,04,03,14,32,4.10
2010,04,03,14,33,6.00
2010,04,03,14,34,4.00
2010,04,03,14,35,3.50
2010,04,03,14,36,3.20
2010,04,03,14,37,6.40
2010,04,03,14,38,6.80
2010,04,03,14,39,3.80
2010,04,03,14,40,6.00
2010,04,03,14,41,3.80
2010,04,03,14,42,6.50
2010,04,03,14,43,1.30
2010,04,03,14,44,5.90
2010,04,03,14,45,2.70
2010,04,03,14,46,2.00
2010,04,03,14,47,0.40
2010,04,03,14,48,2.70
2010,04,03,14,49,4.50
2010,04,03,14,50,2.70
2010,04,03,14,51,4.70
2010,04,03,14,52,2.80
2010,04,03,14,53,9.00
2010,04,03,14,54,4.80
2010,04,03,14,55,2.10
2010,04,03,14,56,2.80
2010,04,03,14,57,3.40
2010,04,03,14,58,4.00
2010,04,03,14,59,3.90
2010,04,03,15,00,6.30
2010,04,03,15,01,1.80
2010,04,03,15,02,7.30
2010,04,03,15,03,4.10
2010,04,03,15,04,3.90
2010,04,03,15,05,4.50
2010,04,03,15,06,7.00
2010,04,03,15,07,7.50
2010,04,03,15,08,10.50
2010,04,03,15,09,8.30
2010,04,03,15,10,6.70
2010,04,03,15,11,4.20
2010,04,03,15,12,1.80
2010,04,03,15,13,3.10
2010,04,03,15,14,3.40
2010,04,03,15,15,4.00
2010,04,03,15,16,2.00
2010,04,03,15,17,2.40
2010,04,03,15,18,2.10
2010,04,03,15,19,5.40
2010,04,03,15,20,6.10
2010,04,03,15,21,4.60
2010,04,03,15,22,2.60
2010,04,03,15,23,2.90
2010,04,03,15,24,2.20
2010,04,03,15,25,4.40
2010,04,03,15,26,7.10
2010,04,03,15,27,5.80
2010,04,03,15,28,8.00
2010,04,03,15,29,4.30
2010,04,03,15,30,2.20
2010,04,03,15,31,4.60
2010,04,03,15,32,4.10
2010,04,03,15,33,6.20
2010,04,03,15,34,2.30
2010,04,03,15,35,1.90
2010,04,03,15,36,7.50
2010,04,03,15,37,3.40
2010,04,03,15,38,1.90
2010,04,03,15,39,3.10
2010,04,03,15,40,0.40
2010,04,03,15,41,5.80
2010,04,03,15,42,6.20
2010,04,03,15,43,7.60
2010,04,03,15,44,3.60
2010,04,03,15,45,3.70
2010,04,03,15,46,4.70
2010,04,03,15,47,3.40
2010,04,03,15,48,3.20
2010,04,03,15,49,6.30
2010,04,03,15,50,2.80
2010,04,03,15,51,2.50
2010,04,03,15,52,0.90
2010,04,03,15,53,0.90
2010,04,03,15,54,0.50
2010,04,03,15,55,2.70
2010,04,03,15,56,4.40
2010,04,03,15,57,5.90
2010,04,03,15,58,2.30
2010,04,03,15,59,2.10
2010,04,03,16,00,2.40
2010,04,03,16,01,4.50
2010,04,03,16,02,3.50
2010,04,03,16,03,5.80
2010,04,03,16,04,6.20
2010,04,03,16,05,2.10
2010,04,03,16,06,5.30
2010,04,03,16,07,9.60
2010,04,03,16,08,4.40
2010,04,03,16,09,4.70
2010,04,03,16,10,5.80
2010,04,03,16,11,7.40
2010,04,03,16,12,4.90
2010,04,03,16,13,3.80
2010,04,03,16,14,5.50
2010,04,03,16,15,5.20
2010,04,03,16,16,4.60
2010,04,03,16,17,4.30
2010,04,03,16,18,3.10
2010,04,03,16,19,2.90
2010,04,03,16,20,5.70
2010,04,03,16,21,2.50
2010,04,03,16,22,2.70
2010,04,03,16,23,5.50
2010,04,03,16,24,3.60
2010,04,03,16,25,3.00
2010,04,03,16,26,3.50
2010,04,03,16,27,0.60
2010,04,03,16,28,1.80
2010,04,03,16,29,0.10
2010,04,03,16,30,4.30
2010,04,03,16,31,3.80
2010,04,03,16,32,5.10
2010,04,03,16,33,2.80
2010,04,03,16,34,1.00
2010,04,03,16,35,1.00
2010,04,03,16,36,1.90
2010,04,03,16,37,2.10
2010,04,03,16,38,1.10
2010,04,03,16,39,2.10
2010,04,03,16,40,4.80
2010,04,03,16,41,1.20
2010,04,03,16,42,2.70
2010,04,03,16,43,2.30
2010,04,03,16,44,3.00
2010,04,03,16,45,1.30
2010,04,03,16,46,0.40
2010,04,03,16,47,1.20
2010,04,03,16,48,2.50
2010,04,03,16,49,1.70
2010,04,03,16,50,1.60
2010,04,03,16,51,2.70
2010,04,03,16,52,1.20
2010,04,03,16,53,2.50
2010,04,03,16,54,4.40
2010,04,03,16,55,3.10
2010,04,03,16,56,2.50
2010,04,03,16,57,1.90
2010,04,03,16,58,4.60
2010,04,03,16,59,7.20
2010,04,03,17,00,7.00
2010,04,03,17,01,3.10
2010,04,03,17,02,2.70
2010,04,03,17,03,4.40
2010,04,03,17,04,5.40
2010,04,03,17,05,0.70
2010,04,03,17,06,0.80
2010,04,03,17,07,0.90
2010,04,03,17,08,1.50
2010,04,03,17,09,1.10
2010,04,03,17,10,1.00
2010,04,03,17,11,2.10
2010,04,03,17,12,1.80
2010,04,03,17,13,0.50
2010,04,03,17,14,2.80
2010,04,03,17,15,1.30
2010,04,03,17,16,2.70
2010,04,03,17,17,0.50
2010,04,03,17,18,0.70
2010,04,03,17,19,1.50
2010,04,03,17,20,5.10
2010,04,03,17,21,3.00
2010,04,03,17,22,2.40
2010,04,03,17,23,0.30
2010,04,03,17,24,0.20
2010,04,03,17,25,0.90
2010,04,03,17,26,0.80
2010,04,03,17,27,0.60
2010,04,03,17,28,1.10
2010,04,03,17,29,0.10
2010,04,03,17,30,0.40
2010,04,03,17,31,2.10
2010,04,03,17,32,1.00
2010,04,03,17,33,0.40
2010,04,03,17,34,2.10
2010,04,03,17,35,0.70
2010,04,03,17,36,2.60
2010,04,03,17,37,2.10
2010,04,03,17,38,2.80
2010,04,03,17,39,2.10
2010,04,03,17,40,3.30
2010,04,03,17,41,4.20
2010,04,03,17,42,4.00
2010,04,03,17,43,5.50
2010,04,03,17,44,4.70
2010,04,03,17,45,4.60
2010,04,03,17,46,1.80
2010,04,03,17,47,5.20
2010,04,03,17,48,2.60
2010,04,03,17,49,2.20
2010,04,03,17,50,2.10
2010,04,03,17,51,1.50
2010,04,03,17,52,1.10
2010,04,03,17,53,2.30
2010,04,03,17,54,3.10
2010,04,03,17,55,1.10
2010,04,03,17,56,4.40
2010,04,03,17,57,8.20
2010,04,03,17,58,2.20
2010,04,03,17,59,0.10
2010,04,03,18,00,3.50
2010,04,03,18,01,5.10
2010,04,03,18,02,2.10
2010,04,03,18,03,3.40